125P/Spacewatch (2013)

Japanese version
Home page
Updated on December 8, 2013

---------------------------------------------------------------------

* Profile

* Pictures

* Orbital Elements

Epoch 2013 Jan. 28.0 TT = JDT 2456320.5
T 2013 Feb. 16.98201 TT                                 MPC
q   1.5254644            (2000.0)            P               Q
n   0.17815242     Peri.   87.22739     -0.48686703     +0.86996731
a   3.1280587      Node   153.18907     -0.85438118     -0.45569011
e   0.5123287      Incl.    9.98581     -0.18164057     -0.18842346
P   5.53
From 387 observations 1991 Sept. 8-2013 June 17, mean residual 0".7.
     Nongravitational parameters A1 = +0.03, A2 = +0.0072.

* Finding Charts

* Magnitudes Graph

        m1 = 14.0 + 5 log d + 13.0 log r          [   ,-55]  (             - 2012 Dec. 23)
        m1 =  6.4 + 5 log d + 45   log r(t - 20)  [-55,112]  (2012 Dec. 23 - 2013 June  8)
        m1 = 14.0 + 5 log d + 13.0 log r          [112,   ]  (2013 June  8 -             )

---------------------------------------------------------------------

The orbital elements are published on M.P.E.C. 2013-M31.
The charts are made with StellaNavigator Ver.8 (AstroArts).
The magnitudes graphs are made with Comet for Windows.

---------------------------------------------------------------------

Copyright(C) Seiichi Yoshida (comet@aerith.net). All rights reserved.